Oakland, CA

2:30 PM PDT on June 22, 2018 (GMT -0700)
Metro Oakland International

Weather History for KOAK - October, 2017

Change the Weather History Date:

Friday, October 20, 2017

  Actual Average Record
Temperature  
Mean Temperature 57 °F 60 °F  
Max Temperature 63 °F 69 °F 90 °F (1998)
Min Temperature 50 °F 51 °F 36 °F (1949)
Degree Days  
Heating Degree Days 8 5  
Month to date heating degree days 76 82  
Since 1 July heating degree days 149 282  
Cooling Degree Days 0 0  
Month to date cooling degree days 1 12  
Year to date cooling degree days 291 137  
Growing Degree Days 7 (Base 50)    
Moisture  
Dew Point 51 °F    
Average Humidity 80    
Maximum Humidity 100    
Minimum Humidity 60    
Precipitation  
Precipitation 0.02 in 0.04 in 0.45 in (1985)
Month to date precipitation 0.13 0.58  
Year to date precipitation 20.25 14.08  
Sea Level Pressure  
Sea Level Pressure 30.07 in    
Wind  
Wind Speed 11 mph (West)    
Max Wind Speed 23 mph    
Max Gust Speed 27 mph    
Visibility 10 miles    
Events Rain    
T = Trace of Precipitation, MM = Missing Value Source: NWS Daily Summary

Daily Weather History Graph

Daily Weather History Graph

Search for Another Location

Airport or City:

Astronomy

Oct. 20, 2017 Rise Set
Actual Time 7:22 AM PDT 6:24 PM PDT
Civil Twilight 6:55 AM PDT 6:50 PM PDT
Nautical Twilight 6:25 AM PDT 7:21 PM PDT
Astronomical Twilight 5:54 AM PDT 7:51 PM PDT
Moon 8:06 AM PDT (10/20) 7:23 PM PDT (10/20)
Length of Visible Light 11h 55m
Length of Day
11h 01m
New Moon, 1% of the Moon is Illuminated
Oct 20
New Moon
Oct 27
First Quarter
Nov 3
Full
Nov 10
Last Quarter
Nov 18
New

Hourly Weather History & Observations

Time (PDT) Temp. Dew Point Humidity Pressure Visibility Wind Dir Wind Speed Gust Speed Precip Events Conditions
12:00 AM 55.0 °F 54.0 °F 96% 29.91 in 7.0 mi WNW 23.0 mph - 0.01 in Rain Light Rain
12:53 AM 54.0 °F 54.0 °F 100% 29.94 in 6.0 mi WNW 16.1 mph - 0.07 in Rain Light Rain
1:14 AM 54.0 °F 54.0 °F 100% 29.94 in 9.0 mi WNW 9.2 mph - 0.01 in Rain Light Rain
1:53 AM 55.0 °F 53.1 °F 93% 29.95 in 10.0 mi West 11.5 mph - 0.02 in Rain Light Rain
2:53 AM 54.0 °F 52.0 °F 93% 29.96 in 10.0 mi West 19.6 mph - 0.00 in   Scattered Clouds
3:53 AM 54.0 °F 53.1 °F 97% 30.00 in 10.0 mi WNW 11.5 mph - N/A   Mostly Cloudy
4:53 AM 53.1 °F 52.0 °F 96% 30.02 in 10.0 mi North 3.5 mph - N/A   Mostly Cloudy
5:39 AM 51.1 °F 50.0 °F 96% 30.02 in 10.0 mi East 5.8 mph - N/A   Scattered Clouds
5:53 AM 51.1 °F 51.1 °F 100% 30.02 in 10.0 mi ESE 4.6 mph - N/A   Scattered Clouds
6:46 AM 53.1 °F 52.0 °F 96% 30.04 in 10.0 mi SE 5.8 mph - N/A   Mostly Cloudy
6:53 AM 53.1 °F 52.0 °F 96% 30.05 in 10.0 mi SE 4.6 mph - N/A   Mostly Cloudy
7:29 AM 53.1 °F 52.0 °F 96% 30.06 in 10.0 mi SE 5.8 mph - N/A   Mostly Cloudy
7:53 AM 54.0 °F 53.1 °F 97% 30.06 in 10.0 mi Calm Calm - N/A   Mostly Cloudy
8:53 AM 55.0 °F 53.1 °F 93% 30.09 in 10.0 mi SSE 4.6 mph - N/A   Mostly Cloudy
9:53 AM 57.0 °F 52.0 °F 83% 30.10 in 10.0 mi WNW 3.5 mph - N/A   Mostly Cloudy
10:31 AM 57.9 °F 51.1 °F 78% 30.11 in 10.0 mi West 6.9 mph - N/A   Scattered Clouds
10:53 AM 59.0 °F 50.0 °F 72% 30.11 in 10.0 mi West 5.8 mph - N/A   Scattered Clouds
11:53 AM 61.0 °F 48.9 °F 64% 30.12 in 10.0 mi West 11.5 mph - N/A   Mostly Cloudy
12:53 PM 61.0 °F 48.9 °F 64% 30.12 in 10.0 mi West 12.7 mph - N/A   Mostly Cloudy
1:53 PM 63.0 °F 48.9 °F 60% 30.12 in 10.0 mi West 17.3 mph - N/A   Scattered Clouds
2:53 PM 62.1 °F 48.9 °F 62% 30.10 in 10.0 mi West 18.4 mph - N/A   Mostly Cloudy
3:53 PM 62.1 °F 48.9 °F 62% 30.12 in 10.0 mi West 20.7 mph - N/A   Scattered Clouds
4:53 PM 60.1 °F 48.9 °F 67% 30.12 in 10.0 mi West 18.4 mph - N/A   Mostly Cloudy
5:53 PM 57.9 °F 50.0 °F 75% 30.11 in 10.0 mi West 21.9 mph - N/A   Mostly Cloudy
6:53 PM 57.0 °F 48.9 °F 74% 30.14 in 10.0 mi WNW 19.6 mph - N/A   Scattered Clouds
7:53 PM 55.9 °F 50.0 °F 80% 30.14 in 10.0 mi West 15.0 mph - N/A   Partly Cloudy
8:53 PM 55.9 °F 50.0 °F 80% 30.15 in 10.0 mi WNW 15.0 mph - N/A   Partly Cloudy
9:53 PM 55.9 °F 48.0 °F 75% 30.16 in 10.0 mi WNW 11.5 mph - N/A   Partly Cloudy
10:53 PM 54.0 °F 46.0 °F 75% 30.18 in 10.0 mi Calm Calm - N/A   Scattered Clouds
11:53 PM 53.1 °F 46.0 °F 77% 30.18 in 10.0 mi NW 4.6 mph - N/A   Scattered Clouds